Weather History for KDBQ - October, 2013

Change the Weather History Date:

Thursday, October 31, 2013

  Actual Average Record
Temperature  
Mean Temperature 51 °F 44 °F  
Max Temperature 61 °F 53 °F 84 °F (1950)
Min Temperature 40 °F 35 °F 19 °F (1954)
Degree Days  
Heating Degree Days 14 21  
Month to date heating degree days 493 471  
Since 1 July heating degree days 631 649  
Cooling Degree Days 0 0  
Month to date cooling degree days 8 6  
Year to date cooling degree days 640 643  
Moisture  
Dew Point 53 °F    
Average Humidity 95    
Maximum Humidity 100    
Minimum Humidity 89    
Precipitation  
Precipitation 0.22 in 0.08 in 1.71 in (1960)
Month to date precipitation 1.82 2.66  
Year to date precipitation 34.88 32.10  
Snow  
Snow 0.00 in 0.00 in - ()
Month to date snowfall T T  
Since 1 July snowfall T T  
Since 1 September snowfall T T  
Snow Depth 0.00 in    
Sea Level Pressure  
Sea Level Pressure 29.49 in    
Wind  
Wind Speed 13 mph (WSW)    
Max Wind Speed 24 mph    
Max Gust Speed 31 mph    
Visibility 6 miles    
Events Fog , Rain    
T = Trace of Precipitation, MM = Missing Value Source: NWS Daily Summary

Daily Weather History Graph

Daily Weather History Graph

Search for Another Location

Airport or City:

Trip Planner

Search our weather history database for the weather conditions in past years. The results will help you decide how hot, cold, wet, or windy it might be!

Date:

Astronomy

Oct. 31, 2013 Rise Set
Actual Time 7:35 AM CDT 5:56 PM CDT
Civil Twilight 7:06 AM CDT 6:26 PM CDT
Nautical Twilight 6:32 AM CDT 6:59 PM CDT
Astronomical Twilight 6:00 AM CDT 7:31 PM CDT
Moon 4:21 AM CDT 4:17 PM CDT
Length of Visible Light 11h 20m
Length of Day
10h 21m
Waning Crescent, 10% of the Moon is Illuminated
Oct 31
Waning Crescent
Nov 3
New
Nov 9
First Quarter
Nov 17
Full
Nov 25
Last Quarter

Hourly Weather History & Observations

Time (CDT) Temp. Windchill Dew Point Humidity Pressure Visibility Wind Dir Wind Speed Gust Speed Precip Events Conditions
12:43 AM 57.2 °F - 57.2 °F 100% 29.67 in 9.0 mi South 13.8 mph - N/A   Overcast
12:53 AM 57.9 °F - 57.9 °F 100% 29.67 in 10.0 mi South 13.8 mph - N/A   Overcast
1:10 AM 57.2 °F - 57.2 °F 100% 29.66 in 10.0 mi South 11.5 mph - N/A   Overcast
1:35 AM 57.2 °F - 57.2 °F 100% 29.66 in 9.0 mi SSW 9.2 mph - N/A   Overcast
1:53 AM 57.9 °F - 57.9 °F 100% 29.65 in 8.0 mi South 10.4 mph - N/A   Overcast
2:53 AM 60.1 °F - 60.1 °F 100% 29.61 in 6.0 mi South 12.7 mph - N/A   Overcast
3:07 AM 60.8 °F - 60.8 °F 100% 29.60 in 3.0 mi SSW 16.1 mph - 0.02 in Rain Light Rain
3:17 AM 60.8 °F - 60.8 °F 100% 29.59 in 7.0 mi South 15.0 mph - 0.02 in   Overcast
3:32 AM 60.8 °F - 60.8 °F 100% 29.58 in 7.0 mi South 13.8 mph - 0.02 in   Overcast
3:46 AM 60.8 °F - 60.8 °F 100% 29.58 in 3.0 mi SSW 18.4 mph 26.5 mph 0.03 in Rain Light Rain
3:53 AM 61.0 °F - 60.1 °F 97% 29.57 in 2.5 mi SSW 21.9 mph 27.6 mph 0.06 in Rain Rain
4:02 AM 60.8 °F - 60.8 °F 100% 29.56 in 5.0 mi SSW 18.4 mph 26.5 mph 0.00 in Rain Light Rain
4:17 AM 60.8 °F - 60.8 °F 100% 29.56 in 9.0 mi SSW 17.3 mph 27.6 mph 0.01 in   Overcast
4:35 AM 60.8 °F - 60.8 °F 100% 29.55 in 6.0 mi SSW 15.0 mph - 0.01 in Rain Light Rain
4:42 AM 60.8 °F - 60.8 °F 100% 29.55 in 3.0 mi SSW 17.3 mph 23.0 mph 0.03 in Rain Heavy Rain
4:50 AM 60.8 °F - 60.8 °F 100% 29.55 in 3.0 mi SSW 13.8 mph 23.0 mph 0.06 in Rain Light Rain
4:53 AM 60.1 °F - 60.1 °F 100% 29.55 in 4.0 mi SSW 11.5 mph - 0.07 in Rain Light Rain
5:53 AM 60.1 °F - 60.1 °F 100% 29.55 in 4.0 mi SW 15.0 mph - 0.05 in   Overcast
6:20 AM 60.8 °F - 60.8 °F 100% 29.53 in 2.5 mi SW 11.5 mph - 0.01 in Rain Light Rain
6:33 AM 60.8 °F - 60.8 °F 100% 29.53 in 3.0 mi SW 11.5 mph - 0.01 in   Overcast
6:44 AM 60.8 °F - 60.8 °F 100% 29.52 in 2.5 mi SW 10.4 mph - 0.01 in   Overcast
6:53 AM 60.1 °F - 60.1 °F 100% 29.52 in 2.0 mi SW 10.4 mph - 0.01 in   Overcast
7:14 AM 60.8 °F - 60.8 °F 100% 29.52 in 3.0 mi SW 10.4 mph - N/A   Overcast
7:53 AM 60.1 °F - 60.1 °F 100% 29.54 in 9.0 mi West 11.5 mph - N/A   Overcast
8:24 AM 59.0 °F - 59.0 °F 100% 29.53 in 10.0 mi West 10.4 mph - N/A   Overcast
8:53 AM 57.9 °F - 57.9 °F 100% 29.52 in 10.0 mi West 6.9 mph - N/A   Overcast
9:01 AM 57.2 °F - 57.2 °F 100% 29.51 in 9.0 mi West 4.6 mph - N/A   Overcast
9:53 AM 57.0 °F - 57.0 °F 100% 29.50 in 10.0 mi West 10.4 mph - N/A   Overcast
10:18 AM 55.4 °F - 55.4 °F 100% 29.49 in 1.5 mi West 10.4 mph - N/A   Overcast
10:27 AM 55.4 °F - 55.4 °F 100% 29.49 in 0.5 mi West 10.4 mph - N/A Fog Fog
10:32 AM 55.4 °F - 55.4 °F 100% 29.49 in 0.2 mi West 11.5 mph - N/A Fog Fog
10:53 AM 55.0 °F - 55.0 °F 100% 29.47 in 1.0 mi WSW 9.2 mph - N/A   Mist
10:59 AM 55.4 °F - 55.4 °F 100% 29.47 in 3.0 mi WSW 9.2 mph - N/A   Overcast
11:53 AM 54.0 °F - 54.0 °F 100% 29.45 in 5.0 mi WSW 9.2 mph - N/A   Overcast
12:04 PM 53.6 °F - 53.6 °F 100% 29.45 in 2.0 mi West 13.8 mph - N/A   Overcast
12:13 PM 51.8 °F - 51.8 °F 100% 29.45 in 3.0 mi West 13.8 mph - N/A   Overcast
12:39 PM 51.8 °F - 51.8 °F 100% 29.45 in 1.8 mi West 18.4 mph - N/A   Overcast
12:53 PM 50.0 °F - 50.0 °F 100% 29.46 in 1.8 mi West 12.7 mph 24.2 mph N/A   Overcast
1:00 PM 48.2 °F - 48.2 °F 100% 29.46 in 2.0 mi West 11.5 mph - N/A   Overcast
1:08 PM 48.2 °F - 48.2 °F 100% 29.45 in 1.0 mi West 13.8 mph - N/A   Overcast
1:21 PM 48.2 °F - 48.2 °F 100% 29.44 in 3.0 mi West 11.5 mph - 0.00 in Rain Light Rain
1:53 PM 48.0 °F - 48.0 °F 100% 29.42 in 8.0 mi West 13.8 mph - 0.02 in Rain Light Rain
2:53 PM 46.9 °F - 46.0 °F 97% 29.39 in 9.0 mi WNW 12.7 mph - 0.00 in Rain Light Rain
3:25 PM 46.4 °F 40.4 °F 46.4 °F 100% 29.37 in 10.0 mi NW 13.8 mph - 0.00 in Rain Light Rain
3:53 PM 46.9 °F - 45.0 °F 93% 29.38 in 10.0 mi WNW 13.8 mph - 0.00 in Rain Light Rain
4:02 PM 46.4 °F 41.1 °F 44.6 °F 93% 29.38 in 10.0 mi WNW 11.5 mph 21.9 mph 0.01 in Rain Light Rain
4:53 PM 46.0 °F 40.6 °F 45.0 °F 96% 29.38 in 10.0 mi WNW 11.5 mph - 0.01 in   Overcast
5:32 PM 44.6 °F 37.8 °F 42.8 °F 93% 29.38 in 10.0 mi WNW 15.0 mph - N/A   Overcast
5:53 PM 45.0 °F 39.3 °F 43.0 °F 93% 29.39 in 10.0 mi WNW 11.5 mph - N/A   Overcast
6:29 PM 44.6 °F 37.8 °F 42.8 °F 93% 29.40 in 10.0 mi WNW 15.0 mph 21.9 mph N/A   Overcast
6:53 PM 43.0 °F 37.2 °F 42.1 °F 97% 29.41 in 10.0 mi WNW 10.4 mph - 0.00 in   Overcast
7:04 PM 42.8 °F 36.2 °F 42.8 °F 100% 29.40 in 10.0 mi WNW 12.7 mph - N/A   Overcast
7:46 PM 42.8 °F 36.6 °F 41.0 °F 93% 29.41 in 10.0 mi WNW 11.5 mph - N/A   Overcast
7:53 PM 43.0 °F 36.4 °F 41.0 °F 93% 29.42 in 10.0 mi WNW 12.7 mph - N/A   Overcast
8:53 PM 42.1 °F 34.9 °F 39.9 °F 92% 29.41 in 10.0 mi West 13.8 mph - N/A   Overcast
9:22 PM 41.0 °F 33.1 °F 39.2 °F 93% 29.40 in 10.0 mi West 15.0 mph 24.2 mph N/A   Overcast
9:53 PM 41.0 °F 32.2 °F 39.0 °F 93% 29.42 in 10.0 mi WNW 18.4 mph - N/A   Overcast
10:53 PM 39.9 °F 30.5 °F 37.9 °F 93% 29.44 in 10.0 mi West 19.6 mph 24.2 mph N/A   Overcast
11:48 PM 39.2 °F 32.0 °F 37.4 °F 93% 29.43 in 10.0 mi West 11.5 mph - N/A   Overcast
11:53 PM 39.9 °F 32.5 °F 37.9 °F 93% 29.44 in 10.0 mi West 12.7 mph - N/A   Overcast